Tiempo cada hora Bartki

Hoy, 6 Marzo, Sábado

Tiempo Temperatura Precipitaciones Viento Presión Humedad
00:00 -4°C° 0 mm 3 mps 754 mmHg 77%
01:00 -4°C° 0 mm 3 mps 754 mmHg 80%
02:00 -4°C° 0 mm 3 mps 754 mmHg 79%
03:00 -4°C° 0 mm 3 mps 754 mmHg 78%
04:00 -4°C° 0 mm 3 mps 754 mmHg 78%
05:00 -4°C° 0 mm 3 mps 754 mmHg 77%
06:00 -4°C° 0 mm 3 mps 755 mmHg 76%
07:00 -3°C° 0 mm 2 mps 755 mmHg 75%
08:00 -2°C° 0 mm 3 mps 755 mmHg 67%
09:00 -1°C° 0 mm 3 mps 755 mmHg 58%
10:00 +1°C° 0 mm 3 mps 755 mmHg 50%
11:00 0°C° 0 mm 4 mps 755 mmHg 48%
12:00 +1°C° 0 mm 5 mps 754 mmHg 45%
13:00 +1°C° 0 mm 5 mps 754 mmHg 43%
14:00 +1°C° 0 mm 5 mps 754 mmHg 45%
15:00 +1°C° 0 mm 5 mps 753 mmHg 47%
16:00 +1°C° 0 mm 5 mps 753 mmHg 48%
17:00 0°C° 0 mm 5 mps 752 mmHg 53%
18:00 -1°C° 0 mm 5 mps 752 mmHg 57%
19:00 -2°C° 0 mm 5 mps 751 mmHg 62%
20:00 -3°C° 0 mm 6 mps 751 mmHg 69%
21:00 -3°C° 0 mm 6 mps 750 mmHg 76%
22:00 -3°C° 0 mm 7 mps 750 mmHg 83%
23:00 -2°C° 0 mm 7 mps 749 mmHg 82%

Mañana, 7 Marzo, Domingo

Tiempo Temperatura Precipitaciones Viento Presión Humedad
00:00 -2°C° 0 mm 8 mps 749 mmHg 81%
01:00 -2°C° 0 mm 8 mps 749 mmHg 80%
02:00 -4°C° 0 mm 9 mps 748 mmHg 82%
03:00 -4°C° 0 mm 9 mps 747 mmHg 83%
04:00 -4°C° 0 mm 9 mps 746 mmHg 84%
05:00 -4°C° 0.2 mm 9 mps 746 mmHg 86%
06:00 -4°C° 0.2 mm 9 mps 746 mmHg 88%
07:00 -4°C° 0.2 mm 9 mps 746 mmHg 89%
08:00 -4°C° 0.1 mm 9 mps 746 mmHg 87%
09:00 -3°C° 0.1 mm 9 mps 746 mmHg 85%
10:00 -3°C° 0.1 mm 9 mps 746 mmHg 82%
11:00 -3°C° 0.2 mm 9 mps 746 mmHg 84%
12:00 -3°C° 0.2 mm 9 mps 745 mmHg 86%
13:00 -3°C° 0.2 mm 9 mps 745 mmHg 87%
14:00 -3°C° 0 mm 9 mps 745 mmHg 87%
15:00 -3°C° 0 mm 9 mps 745 mmHg 88%
16:00 -3°C° 0 mm 9 mps 744 mmHg 88%
17:00 -2°C° 0.5 mm 8 mps 744 mmHg 90%
18:00 -3°C° 0.5 mm 6 mps 744 mmHg 93%
19:00 -2°C° 0.5 mm 5 mps 744 mmHg 95%
20:00 -3°C° 0.2 mm 4 mps 744 mmHg 94%
21:00 -4°C° 0.2 mm 3 mps 744 mmHg 92%
22:00 -3°C° 0.2 mm 2 mps 744 mmHg 91%
23:00 -5°C° 0 mm 3 mps 745 mmHg 90%

Pasado mañana, 8 Marzo, Lunes

Tiempo Temperatura Precipitaciones Viento Presión Humedad
00:00 -5°C° 0 mm 3 mps 745 mmHg 89%
01:00 -5°C° 0 mm 3 mps 745 mmHg 88%
02:00 -5°C° 0 mm 3 mps 745 mmHg 88%
03:00 -5°C° 0 mm 2 mps 745 mmHg 89%
04:00 -5°C° 0 mm 2 mps 745 mmHg 90%
05:00 -5°C° 0 mm 2 mps 746 mmHg 89%
06:00 -5°C° 0 mm 3 mps 746 mmHg 89%
07:00 -5°C° 0 mm 3 mps 747 mmHg 89%
08:00 -4°C° 0.1 mm 4 mps 747 mmHg 80%
09:00 -3°C° 0.1 mm 4 mps 747 mmHg 72%
10:00 -2°C° 0.1 mm 5 mps 748 mmHg 64%
11:00 -2°C° 0.1 mm 5 mps 748 mmHg 63%
12:00 -1°C° 0.1 mm 5 mps 748 mmHg 62%
13:00 -2°C° 0.1 mm 6 mps 748 mmHg 61%
14:00 -1°C° 0.1 mm 5 mps 748 mmHg 62%
15:00 -2°C° 0.1 mm 5 mps 748 mmHg 63%
16:00 -2°C° 0.1 mm 5 mps 748 mmHg 64%
17:00 -4°C° 0 mm 5 mps 749 mmHg 69%
18:00 -4°C° 0 mm 4 mps 749 mmHg 75%
19:00 -5°C° 0 mm 3 mps 750 mmHg 81%
20:00 -5°C° 0 mm 3 mps 750 mmHg 82%
21:00 -5°C° 0 mm 2 mps 750 mmHg 83%
22:00 -5°C° 0 mm 2 mps 751 mmHg 84%
23:00 -5°C° 0 mm 2 mps 751 mmHg 84%

9 Marzo, Martes

Tiempo Temperatura Precipitaciones Viento Presión Humedad
00:00 -5°C° 0 mm 2 mps 751 mmHg 84%
01:00 -5°C° 0 mm 2 mps 751 mmHg 84%
02:00 -3°C° 0 mm 1 mps 751 mmHg 84%
03:00 -3°C° 0 mm 1 mps 751 mmHg 83%
04:00 -4°C° 0 mm 1 mps 751 mmHg 83%
05:00 -3°C° 0 mm 1 mps 751 mmHg 81%
06:00 -3°C° 0 mm 1 mps 751 mmHg 79%
07:00 -3°C° 0 mm 1 mps 752 mmHg 77%
08:00 -3°C° 0 mm 1 mps 752 mmHg 70%
09:00 -2°C° 0 mm 1 mps 752 mmHg 63%
10:00 -3°C° 0 mm 2 mps 752 mmHg 56%
11:00 -3°C° 0 mm 2 mps 752 mmHg 52%
12:00 -2°C° 0 mm 2 mps 752 mmHg 48%
13:00 -2°C° 0 mm 2 mps 752 mmHg 44%
14:00 -2°C° 0 mm 2 mps 752 mmHg 44%
15:00 -2°C° 0 mm 2 mps 751 mmHg 45%
16:00 -2°C° 0 mm 2 mps 751 mmHg 45%
17:00 -2°C° 0 mm 2 mps 751 mmHg 50%
18:00 -3°C° 0 mm 2 mps 751 mmHg 55%
19:00 -4°C° 0 mm 2 mps 751 mmHg 60%
20:00 -4°C° 0 mm 2 mps 751 mmHg 61%
21:00 -4°C° 0 mm 2 mps 751 mmHg 63%
22:00 -5°C° 0 mm 2 mps 751 mmHg 65%
23:00 -5°C° 0 mm 2 mps 751 mmHg 65%

10 Marzo, Miércoles

Tiempo Temperatura Precipitaciones Viento Presión Humedad
00:00 -5°C° 0 mm 2 mps 751 mmHg 66%
01:00 -5°C° 0 mm 2 mps 751 mmHg 67%
02:00 -5°C° 0 mm 2 mps 750 mmHg 68%
03:00 -3°C° 0 mm 1 mps 750 mmHg 68%
04:00 -3°C° 0 mm 1 mps 750 mmHg 69%
05:00 -3°C° 0 mm 1 mps 750 mmHg 68%
06:00 -5°C° 0 mm 2 mps 750 mmHg 68%
07:00 -5°C° 0 mm 2 mps 750 mmHg 67%
08:00 -3°C° 0 mm 2 mps 750 mmHg 63%
09:00 -2°C° 0 mm 2 mps 750 mmHg 58%
10:00 -1°C° 0 mm 2 mps 751 mmHg 54%
11:00 +1°C° 0 mm 2 mps 750 mmHg 50%
12:00 +1°C° 0 mm 3 mps 750 mmHg 47%
13:00 +2°C° 0 mm 3 mps 750 mmHg 44%
14:00 +2°C° 0 mm 3 mps 749 mmHg 46%
15:00 +2°C° 0 mm 3 mps 749 mmHg 48%
16:00 +1°C° 0 mm 3 mps 749 mmHg 49%
17:00 0°C° 0 mm 3 mps 749 mmHg 54%
18:00 -1°C° 0 mm 3 mps 748 mmHg 60%
19:00 -2°C° 0 mm 3 mps 748 mmHg 65%
20:00 -2°C° 0 mm 3 mps 748 mmHg 69%
21:00 -2°C° 0 mm 3 mps 747 mmHg 74%
22:00 -3°C° 0 mm 4 mps 747 mmHg 78%
23:00 -2°C° 0 mm 4 mps 746 mmHg 83%

11 Marzo, Jueves

Tiempo Temperatura Precipitaciones Viento Presión Humedad
00:00 -2°C° 0 mm 4 mps 745 mmHg 88%
01:00 -2°C° 0 mm 5 mps 745 mmHg 92%
02:00 -2°C° 0 mm 5 mps 744 mmHg 91%
03:00 -2°C° 0 mm 5 mps 743 mmHg 90%
04:00 -3°C° 0 mm 6 mps 742 mmHg 89%
05:00 -2°C° 0 mm 6 mps 741 mmHg 89%
06:00 -2°C° 0 mm 6 mps 741 mmHg 90%
07:00 -2°C° 0 mm 7 mps 740 mmHg 91%
08:00 -1°C° 0.3 mm 7 mps 739 mmHg 92%
09:00 -1°C° 0.3 mm 7 mps 738 mmHg 93%
10:00 0°C° 0.3 mm 8 mps 738 mmHg 93%
11:00 0°C° 0.4 mm 8 mps 737 mmHg 94%
12:00 0°C° 0.4 mm 8 mps 736 mmHg 94%
13:00 +1°C° 0.4 mm 8 mps 735 mmHg 94%
14:00 +3°C° 0.1 mm 7 mps 735 mmHg 92%
15:00 +3°C° 0.1 mm 7 mps 734 mmHg 91%
16:00 +4°C° 0.1 mm 7 mps 733 mmHg 89%
17:00 +5°C° 0.1 mm 8 mps 732 mmHg 87%
18:00 +5°C° 0.1 mm 8 mps 732 mmHg 85%
19:00 +5°C° 0.1 mm 9 mps 732 mmHg 83%
20:00 +5°C° 0.4 mm 9 mps 732 mmHg 81%
21:00 +4°C° 0.4 mm 8 mps 732 mmHg 79%
22:00 +2°C° 0.4 mm 8 mps 733 mmHg 77%
23:00 +2°C° 0 mm 8 mps 733 mmHg 80%
Mostrar más

Necesitamos Su Consentimiento

Meteoprog y nuestros Proveedores de Servicios pueden almacenar y acceder a sus datos personales como cookies, identificadores de dispositivo u otras tecnologías similares de su dispositivo y procesar dichos datos para personalizar contenido y anuncios, además de ofrecer funciones de redes sociales y analizar el tráfico.

  • Almacenar y/o acceder a información en su dispositivo

    Se puede almacenar o acceder a cookies, identificadores de dispositivo u otra información de su dispositivo para los fines anteriormente indicados.

  • Anuncios y contenido personalizados, medición de anuncios y contenido, percepciones del público, y desarrollo de productos

    Los anuncios y el contenido pueden personalizarse en base a su perfil. Se pueden añadir más datos para personalizar mejor los anuncios y contenidos. Se puede medir el rendimiento de los anuncios y contenidos. Se puede obtener la percepción sobre el público que ha visto los anuncios y contenidos. Dichos datos pueden usarse para desarrollar o mejorar la experiencia del usuario, sistemas y software.

Al hacer clic en ‘Estoy De Acuerdo’ usted permitirá el uso de las cookies, identificadores de dispositivo, balizas web u otras tecnologías similares indicadas. Su configuración puede cambiarse desde el navegador de su dispositivo.

Para ciertos fines, los intereses legítimos pueden ser considerados por encima del consentimiento. Puede leer más sobre ello en nuestra Política de Privacidad y Cookies.